Wind_Speed
13 15 18 21 23 22 21 22 25 28 28 27 26 29 34 39 44 45 49 49 47 34 26 32 29 24 18 11 3 2 3 11 9 13 18 31 28 31 34 38 42 50 50 55 62 66 65
11 14 18 21 23 22 22 22 24 27 29 30 29 29 34 40 44 45 48 49 46 32 27 31 28 23 15 9 1 3 4 4 9 10 21 25 31 30 31 37 41 44 46 48 54 56 54
10 13 17 21 25 25 22 23 25 26 30 32 31 30 34 40 44 46 47 48 45 31 29 31 29 24 9 7 4 3 3 2 5 12 16 21 29 29 28 36 41 42 43 46 50 49 48
10 13 17 20 23 26 25 23 25 26 29 32 32 30 33 39 43 47 45 46 43 35 27 30 26 21 13 11 9 5 0 2 4 16 19 16 25 26 28 34 40 39 42 45 44 45 45
10 12 16 19 22 27 27 24 25 26 28 31 32 30 31 37 40 44 41 43 43 41 29 27 25 20 12 12 7 4 2 3 6 15 22 15 24 25 27 30 36 39 41 41 41 45 45
10 12 15 18 21 25 27 25 24 26 28 30 31 31 30 33 37 41 38 37 39 37 37 22 26 18 14 11 9 10 8 7 10 10 11 17 20 21 26 28 32 37 39 37 44 45 46
12 12 13 17 20 23 26 25 24 25 27 30 31 31 30 31 35 38 39 36 35 36 37 32 23 22 14 11 9 8 14 13 10 14 12 23 20 20 23 22 21 28 32 41 49 45 46
14 13 13 15 18 21 25 24 22 24 26 28 30 30 30 29 32 35 38 34 33 34 36 37 28 19 21 11 12 13 12 8 14 16 12 17 14 17 22 28 30 32 31 45 44 46 46
14 12 12 13 17 19 23 23 22 23 24 26 27 29 30 28 30 33 36 34 33 32 35 35 32 28 22 15 11 10 11 10 14 10 12 18 14 19 22 23 29 31 35 42 40 44 43
14 12 12 12 15 17 20 21 21 22 22 23 24 27 29 28 28 32 34 37 32 30 34 34 32 34 31 19 15 12 10 7 8 8 14 11 20 26 28 29 34 27 41 35 36 39 40
14 13 12 11 13 15 17 19 20 20 19 19 22 25 27 28 27 29 32 34 36 32 34 33 31 31 31 21 15 8 6 4 8 11 15 15 22 28 32 31 30 35 32 31 33 35 36
14 12 12 12 12 14 16 18 18 18 15 16 19 22 26 28 28 28 29 32 34 32 30 30 29 29 29 27 22 16 16 13 11 14 19 23 23 27 30 28 28 30 30 29 29 32 32
16 14 12 12 11 12 14 16 17 17 13 12 15 19 23 27 29 28 29 29 31 34 34 30 29 27 31 29 23 21 21 24 25 23 24 24 25 26 29 29 29 30 30 28 28 29 27
18 16 13 12 11 11 11 15 16 15 14 11 11 14 19 23 27 29 30 31 30 33 34 30 28 27 28 28 28 24 23 23 26 27 25 25 26 26 29 28 28 29 28 26 25 24 22
19 18 16 13 12 12 11 11 15 15 13 11 9 11 14 18 22 25 28 29 30 31 31 31 28 27 25 25 26 28 24 19 23 28 27 28 27 26 26 27 27 26 25 23 21 19 17
22 20 19 16 14 14 12 11 12 15 14 12 10 9 10 13 17 20 23 26 29 31 31 30 30 28 25 24 24 25 25 21 20 24 29 31 28 27 26 27 26 24 22 19 17 16 14
26 23 21 19 18 16 14 13 11 12 14 12 11 9 9 10 12 15 17 20 24 27 30 31 29 28 26 22 23 22 23 21 21 21 25 30 29 30 28 27 25 22 20 17 14 13 14
30 27 25 22 20 19 17 16 14 13 14 13 12 9 7 8 10 12 13 15 18 21 24 27 29 30 27 25 21 21 21 20 18 19 20 19 23 25 27 27 25 22 20 16 14 14 14
33 31 30 26 26 24 20 19 18 17 16 17 16 13 10 8 8 9 11 13 15 17 19 21 23 25 27 26 23 21 18 19 18 15 15 14 12 16 23 25 23 21 18 16 16 16 18
38 36 33 32 30 28 26 23 21 21 21 20 19 18 16 12 10 9 10 10 12 15 17 20 21 21 21 21 22 22 20 17 15 14 13 11 10 10 10 12 17 21 23 24 24 25 27
44 42 38 38 35 33 31 29 26 26 26 24 20 20 21 17 14 12 11 11 11 12 14 16 16 18 19 18 17 17 17 18 16 15 12 10 8 5 2 3 4 7 9 12 15 20 23
51 48 45 44 40 37 36 34 33 31 30 28 24 21 22 19 18 15 14 11 10 10 12 13 13 14 14 13 15 14 14 13 11 11 11 11 9 8 6 4 6 8 11 14 17 20 21
54 51 49 47 47 43 42 39 38 39 38 34 30 25 22 23 19 18 17 15 13 12 11 11 13 14 13 13 12 11 10 9 8 9 10 9 7 6 8 10 12 12 17 18 20 22 24
52 53 51 51 51 49 47 41 42 42 39 35 33 30 26 23 24 21 20 18 17 16 15 15 17 18 18 17 15 14 14 14 13 11 9 10 10 12 14 17 17 18 22 25 28 30 31
50 46 45 45 47 51 52 49 45 39 35 34 33 34 30 27 27 26 25 25 24 23 23 24 25 25 25 24 21 19 18 17 18 17 17 19 20 21 20 22 25 25 27 32 35 36 38
45 44 42 42 44 45 49 47 41 37 33 31 32 35 34 31 31 31 30 29 28 29 29 30 31 31 31 30 29 27 25 23 24 22 22 24 25 26 27 30 33 31 29 32 37 41 41
45 44 43 41 39 38 40 41 38 37 35 34 33 34 36 36 35 34 33 32 32 33 34 35 35 35 36 35 34 32 32 30 30 29 27 29 31 32 34 36 36 37 39 42 43 44 48
53 50 46 44 43 40 39 40 40 40 38 37 38 38 39 40 40 39 38 37 38 39 39 39 39 37 39 38 37 34 36 35 35 35 36 37 38 39 40 42 43 45 47 49 51 53 55
56 54 54 51 49 48 46 44 45 44 41 41 41 42 42 43 42 43 42 42 43 43 44 44 43 44 44 40 39 40 41 41 41 42 40 42 42 44 46 48 49 50 52 53 54 55 57
Wind_Direction
33 25 21 16 13 3 359 359 360 356 352 350 349 343 346 350 353 354 355 355 355 355 349 341 336 331 326 329 324 247 175 229 242 215 200 170 178 196 189 190 195 203 205 211 208 209 214
27 20 19 15 13 4 3 2 0 357 356 352 352 349 349 353 357 357 358 358 360 2 349 354 346 336 328 333 332 177 168 191 217 195 187 184 186 191 189 192 195 200 203 206 210 207 209
15 13 13 13 12 6 2 4 3 0 0 358 357 354 355 357 359 360 1 1 4 5 358 2 356 349 8 36 78 167 160 44 196 195 184 180 182 190 191 193 195 198 200 204 205 201 200
1 3 7 6 5 5 4 2 3 4 2 1 2 359 359 0 2 2 3 2 4 8 4 6 2 20 58 55 80 122 113 3 198 181 175 181 188 193 195 189 196 197 197 202 200 191 190
346 354 0 1 360 3 5 3 3 6 2 1 5 4 2 4 5 6 6 3 5 6 10 9 20 35 50 52 76 120 163 167 162 174 181 172 195 194 190 191 193 196 198 196 192 182 182
327 341 351 355 356 0 4 3 2 4 2 1 4 5 4 5 6 7 10 10 8 7 13 14 30 36 37 46 45 55 81 107 134 140 173 170 184 191 189 187 196 196 193 191 183 178 179
306 322 338 349 350 358 3 4 1 3 1 358 3 6 4 5 8 9 11 13 13 13 15 22 30 35 35 35 43 16 78 110 111 113 148 178 174 188 187 180 168 193 185 185 177 177 179
299 306 323 338 344 352 2 4 3 1 1 360 2 6 7 6 8 10 13 15 17 17 20 22 29 25 32 41 62 81 79 114 131 122 111 147 172 178 182 175 174 182 181 188 177 178 181
299 299 310 326 337 349 357 5 5 4 1 2 4 5 9 9 8 11 14 17 17 20 27 31 31 31 21 44 66 75 80 89 126 120 116 161 171 153 163 173 170 167 183 184 174 174 181
302 301 299 313 329 343 354 4 5 7 2 2 6 7 10 12 9 12 16 18 19 21 29 36 38 35 37 62 79 75 91 90 106 117 153 173 154 150 156 164 165 173 185 176 168 174 182
310 303 294 299 319 335 349 359 4 5 1 2 9 13 14 17 15 13 16 19 21 23 31 35 38 39 44 49 40 46 98 111 129 121 141 153 150 151 155 160 158 172 176 164 164 172 182
311 306 293 288 306 326 339 353 359 1 0 4 16 20 19 22 21 20 18 20 23 28 36 38 40 45 50 47 46 58 75 85 102 131 126 137 143 148 144 141 156 167 158 153 159 173 183
311 306 288 282 293 313 330 343 354 355 355 1 19 25 23 25 27 26 23 23 24 31 34 39 43 49 54 55 59 68 78 90 98 105 113 124 132 139 132 143 155 153 149 149 160 172 182
309 301 289 276 279 296 317 334 347 348 353 345 3 20 26 26 29 29 29 26 27 32 34 39 46 51 59 62 57 66 80 91 100 104 106 117 123 127 132 147 147 146 146 150 159 174 182
303 299 289 270 266 278 295 320 336 336 340 338 341 358 25 26 31 31 32 29 30 35 38 38 45 52 59 63 63 61 64 80 99 105 108 113 113 121 134 142 142 142 143 152 162 172 186
292 296 286 276 260 265 277 297 323 329 323 327 325 343 6 21 28 33 32 31 32 36 39 42 45 49 56 61 63 65 68 79 93 106 111 113 114 122 132 132 134 134 141 147 159 175 192
282 291 285 279 267 261 265 278 297 318 317 310 313 324 344 8 23 31 33 35 39 38 38 39 45 50 54 62 66 70 73 79 90 101 114 121 125 127 125 124 128 131 138 151 166 185 204
275 282 285 277 270 264 260 267 281 293 308 299 291 301 325 348 5 16 26 33 38 42 42 41 39 43 51 56 67 73 80 85 92 101 113 125 137 139 137 137 139 143 152 165 181 198 212
267 274 280 277 274 268 264 265 273 283 292 299 286 280 286 305 328 350 6 16 25 30 37 41 46 44 44 48 53 63 76 81 87 96 108 125 139 149 155 152 156 161 172 184 200 219 231
266 270 274 277 271 270 268 267 270 276 283 287 286 274 274 277 294 315 333 354 8 15 21 24 29 34 44 47 49 53 56 65 80 86 91 103 123 142 154 166 184 189 193 200 207 215 219
264 266 267 269 267 265 265 266 268 270 274 277 275 266 265 270 279 291 308 321 337 349 359 4 11 16 18 29 41 48 50 50 53 59 69 75 87 98 129 180 212 227 237 245 249 252 254
267 264 265 267 264 260 265 270 274 273 273 274 271 258 260 260 268 274 286 296 311 327 337 344 349 352 355 3 11 17 24 33 44 47 48 38 38 27 8 341 309 287 276 270 269 268 264
264 264 262 262 261 260 261 265 271 275 275 273 265 249 247 255 256 263 270 279 287 297 306 317 325 326 329 328 328 333 340 353 2 360 355 348 347 337 318 313 301 299 292 289 281 277 277
262 259 256 258 254 258 258 263 268 276 274 268 258 247 239 242 249 254 262 273 276 282 288 299 312 317 315 310 308 306 307 309 311 310 307 302 299 302 301 295 285 277 271 273 274 274 276
259 259 253 254 256 258 253 257 269 269 266 264 254 248 240 238 245 250 256 266 268 271 275 285 294 301 306 304 301 299 295 295 295 294 294 293 291 288 283 280 284 281 280 278 274 272 275
254 257 257 258 259 261 257 255 257 262 259 257 256 250 245 245 247 250 253 259 265 269 273 277 281 287 294 296 295 295 292 290 289 288 288 286 287 288 291 292 297 298 287 278 278 278 278
247 254 255 254 255 256 253 248 252 255 255 256 254 253 254 255 256 259 261 263 265 268 271 274 279 285 288 290 289 290 289 291 291 289 284 283 285 286 288 290 293 295 293 290 286 284 281
247 248 250 254 254 252 249 250 252 252 252 253 254 255 256 257 259 262 264 266 268 269 271 274 278 281 283 284 283 285 286 289 289 290 290 289 288 290 290 291 293 292 291 289 289 288 287
247 250 250 250 252 250 249 252 255 256 257 258 260 260 258 257 259 261 264 267 269 272 274 277 280 280 279 276 276 279 284 287 287 286 286 286 286 290 293 289 289 289 290 291 290 289 289
Height
5825 5822 5819 5816 5811 5807 5802 5797 5793 5787 5781 5774 5768 5761 5753 5745 5734 5723 5712 5700 5688 5678 5671 5663 5654 5648 5643 5639 5637 5637 5635 5639 5640 5642 5645 5649 5657 5661 5668 5675 5686 5694 5701 5712 5722 5735 5745
5825 5822 5819 5815 5811 5807 5802 5797 5792 5786 5779 5772 5766 5759 5751 5742 5733 5722 5711 5700 5688 5678 5671 5662 5654 5646 5642 5639 5637 5638 5639 5640 5640 5642 5645 5650 5655 5660 5666 5673 5684 5692 5699 5709 5719 5734 5746
5825 5822 5819 5815 5811 5806 5801 5796 5791 5784 5778 5771 5764 5758 5750 5741 5732 5721 5710 5700 5689 5679 5671 5664 5655 5646 5642 5640 5637 5639 5641 5641 5641 5642 5646 5651 5655 5660 5665 5672 5680 5689 5699 5706 5716 5729 5742
5825 5822 5818 5815 5811 5806 5800 5796 5790 5784 5778 5771 5764 5757 5750 5742 5732 5722 5710 5701 5691 5681 5673 5665 5657 5648 5645 5641 5639 5640 5641 5641 5642 5643 5647 5649 5655 5660 5665 5672 5680 5688 5695 5703 5716 5728 5740
5823 5821 5818 5815 5811 5805 5800 5795 5790 5784 5778 5771 5764 5757 5750 5743 5734 5724 5713 5701 5691 5682 5674 5667 5659 5653 5650 5645 5643 5641 5642 5643 5643 5646 5648 5651 5656 5660 5666 5672 5678 5686 5695 5704 5716 5726 5737
5822 5820 5817 5814 5810 5805 5799 5794 5789 5784 5778 5772 5765 5757 5751 5744 5736 5726 5716 5706 5696 5686 5676 5670 5662 5659 5654 5651 5647 5645 5644 5644 5646 5648 5651 5654 5657 5662 5667 5673 5681 5688 5696 5705 5716 5725 5735
5820 5818 5816 5813 5809 5805 5800 5794 5789 5784 5779 5773 5765 5758 5751 5745 5738 5728 5718 5710 5703 5692 5680 5672 5668 5662 5657 5655 5651 5649 5648 5648 5649 5651 5653 5656 5661 5664 5670 5674 5681 5691 5698 5706 5712 5724 5734
5817 5816 5814 5811 5808 5804 5799 5794 5789 5784 5779 5773 5766 5760 5753 5746 5739 5731 5722 5713 5704 5698 5687 5676 5670 5666 5661 5656 5654 5653 5653 5654 5652 5654 5656 5659 5662 5665 5670 5675 5681 5690 5697 5708 5714 5722 5734
5815 5814 5813 5811 5807 5804 5799 5794 5789 5784 5779 5774 5768 5761 5755 5748 5741 5735 5726 5717 5708 5701 5692 5683 5676 5670 5664 5661 5658 5658 5658 5657 5658 5659 5660 5661 5664 5666 5672 5679 5685 5693 5702 5711 5717 5725 5737
5812 5811 5810 5809 5807 5803 5799 5794 5790 5785 5780 5774 5769 5763 5757 5750 5745 5737 5730 5721 5713 5706 5697 5690 5683 5676 5669 5666 5664 5663 5662 5662 5661 5662 5663 5665 5665 5669 5675 5681 5688 5695 5706 5712 5718 5727 5738
5809 5808 5808 5807 5805 5802 5799 5795 5790 5786 5781 5776 5770 5764 5759 5752 5746 5741 5734 5726 5718 5711 5703 5697 5689 5683 5677 5674 5671 5666 5665 5663 5664 5664 5667 5669 5671 5673 5678 5686 5691 5701 5710 5715 5721 5731 5741
5806 5805 5804 5804 5802 5800 5797 5794 5790 5787 5783 5778 5773 5767 5762 5756 5749 5744 5737 5730 5724 5717 5709 5703 5697 5691 5685 5679 5676 5673 5670 5668 5667 5668 5669 5673 5677 5681 5684 5690 5699 5708 5713 5718 5725 5733 5743
5804 5802 5801 5801 5801 5799 5796 5793 5790 5787 5784 5780 5775 5770 5765 5759 5753 5747 5741 5735 5731 5721 5714 5709 5703 5697 5692 5688 5683 5680 5678 5674 5674 5675 5676 5679 5683 5688 5690 5697 5706 5711 5716 5721 5729 5738 5746
5801 5799 5798 5798 5797 5797 5795 5792 5789 5787 5784 5781 5777 5773 5768 5763 5757 5751 5746 5740 5734 5726 5719 5714 5709 5704 5700 5696 5693 5689 5686 5684 5681 5682 5685 5688 5692 5694 5698 5707 5712 5716 5721 5727 5735 5742 5749
5798 5797 5795 5794 5794 5793 5792 5790 5788 5786 5784 5781 5778 5775 5770 5766 5761 5756 5751 5745 5738 5731 5725 5720 5715 5711 5707 5704 5701 5698 5695 5693 5691 5689 5694 5696 5699 5703 5709 5714 5718 5722 5727 5734 5740 5745 5751
5794 5793 5792 5792 5790 5790 5789 5788 5787 5785 5783 5781 5778 5775 5772 5768 5764 5760 5756 5751 5745 5738 5731 5726 5721 5717 5714 5711 5709 5706 5703 5702 5701 5699 5699 5702 5708 5712 5717 5719 5723 5727 5733 5740 5744 5749 5753
5790 5789 5788 5788 5788 5787 5785 5784 5783 5782 5781 5780 5778 5775 5773 5770 5766 5763 5759 5755 5749 5744 5739 5734 5728 5723 5720 5717 5715 5714 5713 5711 5709 5710 5709 5709 5714 5718 5720 5724 5728 5733 5737 5742 5747 5751 5753
5784 5784 5783 5783 5783 5783 5782 5781 5780 5778 5778 5777 5776 5775 5773 5771 5769 5765 5762 5758 5754 5749 5744 5740 5736 5731 5727 5723 5721 5719 5719 5718 5717 5717 5718 5719 5719 5720 5723 5727 5730 5734 5739 5743 5747 5750 5752
5776 5777 5778 5777 5778 5778 5778 5777 5776 5775 5774 5773 5773 5772 5771 5770 5768 5765 5763 5761 5758 5754 5750 5746 5742 5738 5735 5732 5729 5725 5724 5723 5724 5724 5725 5726 5726 5726 5727 5730 5733 5735 5739 5742 5745 5747 5749
5767 5769 5771 5771 5771 5772 5772 5772 5772 5770 5770 5769 5769 5769 5768 5767 5766 5764 5762 5760 5758 5756 5753 5751 5748 5745 5741 5738 5735 5732 5731 5729 5728 5728 5729 5730 5730 5732 5733 5734 5735 5735 5736 5738 5740 5742 5743
5760 5761 5763 5764 5764 5764 5765 5765 5766 5765 5764 5764 5763 5764 5764 5764 5763 5761 5760 5759 5757 5756 5754 5752 5750 5748 5746 5743 5741 5739 5737 5735 5733 5732 5732 5732 5732 5733 5734 5735 5736 5737 5738 5739 5740 5740 5741
5748 5751 5753 5755 5756 5756 5757 5757 5758 5759 5759 5759 5757 5757 5758 5758 5759 5758 5757 5756 5754 5753 5753 5751 5749 5748 5746 5745 5744 5742 5740 5739 5738 5737 5736 5735 5735 5734 5734 5734 5734 5735 5735 5735 5735 5735 5735
5735 5737 5740 5743 5745 5747 5747 5749 5749 5750 5751 5751 5751 5750 5750 5752 5752 5753 5753 5752 5752 5751 5750 5748 5747 5745 5744 5744 5742 5742 5741 5739 5738 5737 5737 5736 5736 5735 5735 5734 5733 5734 5731 5730 5730 5729 5729
5721 5723 5725 5729 5732 5735 5737 5739 5738 5740 5741 5742 5743 5743 5743 5746 5746 5746 5746 5747 5747 5747 5746 5745 5744 5743 5742 5740 5740 5739 5739 5739 5738 5736 5735 5734 5733 5733 5732 5731 5731 5730 5728 5727 5726 5724 5722
5709 5710 5712 5716 5720 5722 5724 5728 5728 5729 5731 5732 5734 5735 5735 5737 5738 5739 5739 5740 5740 5740 5740 5739 5739 5738 5737 5736 5735 5734 5733 5733 5733 5733 5732 5730 5728 5727 5727 5725 5724 5725 5725 5722 5717 5716 5713
5696 5699 5701 5704 5707 5709 5712 5715 5718 5719 5721 5723 5725 5726 5727 5729 5730 5729 5730 5731 5732 5732 5732 5732 5731 5731 5731 5729 5729 5728 5726 5725 5725 5725 5724 5722 5721 5720 5718 5715 5714 5714 5713 5710 5708 5705 5705
5684 5687 5690 5693 5695 5698 5701 5704 5706 5708 5711 5713 5715 5717 5719 5720 5721 5722 5722 5722 5722 5723 5723 5723 5723 5723 5722 5721 5721 5720 5719 5719 5717 5717 5716 5714 5711 5710 5709 5706 5705 5704 5700 5697 5694 5694 5686
5672 5676 5678 5681 5684 5687 5690 5693 5695 5697 5699 5702 5704 5706 5708 5710 5711 5712 5713 5713 5713 5713 5713 5714 5714 5714 5712 5712 5711 5711 5709 5709 5708 5707 5706 5704 5702 5702 5699 5697 5695 5692 5689 5686 5682 5677 5674
5658 5662 5666 5669 5672 5675 5679 5682 5683 5685 5688 5690 5692 5694 5696 5698 5700 5701 5702 5702 5703 5703 5703 5703 5703 5702 5701 5700 5700 5699 5699 5698 5698 5696 5696 5694 5692 5690 5689 5684 5680 5676 5672 5669 5665 5662 5659